Content
SEND FEEDBACK

Daily
Averages
Monthly
Summary
Germany

EHRINGSDORF, GERMANY


Home > Europe > Germany
Elevation: 879 feet     Latitude: 51 00N     Longitude: 011 18E

WEATHER
 
SELECT A DAY
Number of Records: 160,963;   Date Range: 7/3/96 - 11/24/14
 
SHARE

PRINT THIS DATA

[ ← Previous Day ]
WEATHER ALMANAC - JANUARY 31, 2013
[ Next Day → ]
[ °C ]   °F
Weather ElementAverageHighLow
Temperature41.8 °F45 °F (12:00 pm)39.2 °F (7:50 pm)
Dewpoint33.6 °F35.6 °F (1:50 am)30 °F (12:00 pm)
Humidity70.3 %87 % (9:50 pm)43 % (12:00 pm)
Barometer29.83 in29.94 in (8:00 am)29.71 in (6:20 pm)
Wind Speed25.9 mph31.3 mph (2:00 am)
Wind Gust46 mph (6:20 am)
Weather ElementAverage
Visibility13.3 mi
Wind DirectionWSW (251.6 °)

Weather ElementTotal
Precipitation---
Heating Degree Days22.9 (Base 65)
Averaged from 69 records on January 31, 2013
WEATHER CONDITIONS BREAKOUT
WIND DIRECTION BREAKOUT
WEATHER BY HOUR - JANUARY 31, 2013
[ °C ]   °F
Local TimeTemperatureDewpointHumidityBarometerVisibilityWind DirectionWind SpeedGust SpeedPrecipitationEventsConditions
12:20 AM42.8 °F33.8 °F70 %29.80 in6.2 miWSW (250°)26.5 mphPartly Cloudy
12:50 AM42.8 °F33.8 °F70 %29.83 in6.2 miWSW (250°)26.5 mph39.1 mphPartly Cloudy
1:00 AM43.0 °F33.0 °F58 %29.86 in22.0 miWest (260°)29.1 mphPartly Cloudy
1:20 AM42.8 °F33.8 °F70 %29.83 in6.2 miWSW (250°)27.6 mph39.1 mphPartly Cloudy
1:50 AM41.0 °F35.6 °F81 %29.86 in6.2 miWSW (250°)29.9 mph41.4 mphPartly Cloudy
2:00 AM42.0 °F34.0 °F65 %29.91 in22.0 miWest (270°)31.3 mphScattered Clouds
2:20 AM42.8 °F35.6 °F76 %29.89 in6.2 miWSW (250°)23.0 mph34.5 mphScattered Clouds
2:50 AM41.0 °F35.6 °F81 %29.89 in6.2 miWSW (250°)27.6 mphPartly Cloudy
3:00 AM41.0 °F34.0 °F68 %29.92 in22.0 miWest (270°)31.3 mphRainLight Rain
3:20 AM41.0 °F33.8 °F76 %29.89 in6.2 miWSW (250°)26.5 mphPartly Cloudy
3:50 AM41.0 °F33.8 °F76 %29.89 inWSW (250°)27.6 mphClear
4:00 AM41.0 °F34.0 °F68 %29.93 in22.0 miWest (260°)29.1 mphPartly Cloudy
4:20 AM41.0 °F33.8 °F76 %29.89 inWSW (250°)26.5 mphClear
4:50 AM41.0 °F33.8 °F76 %29.89 inWSW (250°)27.6 mphClear
5:00 AM41.0 °F33.0 °F66 %29.93 in22.0 miWest (260°)29.1 mph
5:20 AM41.0 °F33.8 °F76 %29.89 inWSW (250°)25.3 mph36.8 mphClear
5:50 AM41.0 °F33.8 °F76 %29.89 in6.2 miWSW (250°)28.8 mph41.4 mphPartly Cloudy
6:00 AM41.0 °F34.0 °F66 %29.92 in22.0 miWest (270°)31.3 mphScattered Clouds
6:20 AM41.0 °F33.8 °F76 %29.89 in6.2 miWSW (250°)29.9 mph46.0 mphPartly Cloudy
6:50 AM41.0 °F33.8 °F76 %29.89 in6.2 miWest (260°)31.1 mphPartly Cloudy
7:20 AM41.0 °F32.0 °F70 %29.89 inWSW (250°)29.9 mphClear
7:50 AM41.0 °F32.0 °F70 %29.89 inWSW (250°)26.5 mphClear
8:00 AM40.0 °F32.0 °F63 %29.94 in22.0 miWest (270°)31.3 mphClear
8:20 AM41.0 °F32.0 °F70 %29.89 inWSW (250°)27.6 mph39.1 mphClear
8:50 AM41.0 °F33.8 °F76 %29.92 in6.2 miWSW (240°)23.0 mphMostly Cloudy
9:00 AM41.0 °F32.0 °F62 %29.94 in25.0 miWest (260°)26.8 mphScattered Clouds
9:20 AM42.8 °F33.8 °F70 %29.92 in6.2 miWSW (250°)25.3 mph38.0 mphMostly Cloudy
9:50 AM42.8 °F33.8 °F70 %29.89 in6.2 miWSW (250°)29.9 mph42.6 mphMostly Cloudy
10:00 AM42.0 °F33.0 °F59 %29.93 in25.0 miWest (260°)29.1 mphScattered Clouds
10:20 AM42.8 °F33.8 °F70 %29.89 in6.2 miWSW (250°)25.3 mphMostly Cloudy
10:50 AM42.8 °F33.8 °F70 %29.89 inWSW (250°)24.2 mphClear
11:00 AM43.0 °F33.0 °F56 %29.92 in28.0 miWest (270°)26.8 mphOvercast
11:20 AM44.6 °F32.0 °F61 %29.86 inWSW (240°)25.3 mph36.8 mphClear
11:50 AM44.6 °F30.2 °F57 %29.83 inSW (230°)28.8 mphClear
12:00 PM45.0 °F30.0 °F43 %29.88 in28.0 miWSW (250°)29.1 mphScattered Clouds
12:20 PM44.6 °F30.2 °F57 %29.86 in6.2 miSW (220°)24.2 mphMostly Cloudy
12:50 PM44.6 °F32.0 °F61 %29.83 inSW (230°)21.9 mphClear
1:00 PM44.0 °F31.0 °F48 %29.86 in31.0 miWSW (240°)22.4 mphScattered Clouds
1:20 PM44.6 °F30.2 °F57 %29.80 inSW (230°)20.7 mph34.5 mphClear
1:50 PM44.6 °F32.0 °F61 %29.80 inSW (230°)20.7 mphClear
2:20 PM44.6 °F32.0 °F61 %29.80 in6.2 miWSW (240°)21.9 mphMostly Cloudy
2:50 PM44.6 °F33.8 °F66 %29.77 in6.2 miWSW (240°)26.5 mph40.3 mphRainLight Rain
3:00 PM44.0 °F33.0 °F54 %29.81 in19.0 miWSW (250°)31.3 mphRainLight Rain
3:20 PM42.8 °F35.6 °F76 %29.77 in6.2 miWSW (240°)29.9 mphRainLight Rain
3:50 PM42.8 °F35.6 °F76 %29.74 in6.2 miWSW (240°)28.8 mph42.6 mphRainLight Rain
4:00 PM42.0 °F35.0 °F68 %29.79 in16.0 miWest (260°)31.3 mphRainLight Rain
4:20 PM41.0 °F35.6 °F81 %29.74 in6.2 miWSW (240°)20.7 mph33.4 mphMostly Cloudy
4:50 PM42.8 °F35.6 °F76 %29.74 in6.2 miWSW (240°)25.3 mphMostly Cloudy
5:00 PM42.0 °F35.0 °F67 %29.78 in22.0 miWest (260°)29.1 mphRainLight Rain
5:20 PM42.8 °F35.6 °F76 %29.74 in6.2 miWSW (240°)26.5 mph39.1 mphMostly Cloudy
5:50 PM41.0 °F35.6 °F81 %29.74 in6.2 miWSW (240°)27.6 mphScattered Clouds
6:00 PM42.0 °F34.0 °F65 %29.76 in22.0 miWSW (250°)29.1 mphMostly Cloudy
6:20 PM41.0 °F33.8 °F76 %29.71 in6.2 miWSW (250°)26.5 mph38.0 mphScattered Clouds
6:50 PM42.8 °F35.6 °F76 %29.71 in6.2 miWSW (250°)26.5 mphScattered Clouds
7:00 PM42.0 °F35.0 °F67 %29.75 in22.0 miWest (260°)31.3 mphPartly Cloudy
7:20 PM41.0 °F33.8 °F76 %29.71 in6.2 miWest (260°)29.9 mph41.4 mphScattered Clouds
7:50 PM39.2 °F33.8 °F81 %29.74 in6.2 miWSW (240°)20.7 mphScattered Clouds
8:00 PM40.0 °F33.0 °F66 %29.79 in22.0 miWest (260°)22.4 mphPartly Cloudy
8:20 PM41.0 °F33.8 °F76 %29.77 in6.2 miWSW (250°)18.4 mphMostly Cloudy
8:50 PM39.2 °F33.8 °F81 %29.77 in6.2 miWest (280°)17.3 mphPartly Cloudy
9:00 PM40.0 °F34.0 °F72 %29.81 in31.0 miWNW (290°)20.1 mphRainLight Rain Showers
9:20 PM39.2 °F33.8 °F81 %29.77 inWSW (250°)17.3 mphClear
9:50 PM39.2 °F35.6 °F87 %29.77 in6.2 miWest (260°)19.6 mphScattered Clouds
10:00 PM40.0 °F34.0 °F72 %29.82 in31.0 miWest (270°)20.1 mphPartly Cloudy
10:20 PM39.2 °F33.8 °F81 %29.77 in6.2 miWSW (250°)18.4 mphPartly Cloudy
10:50 PM39.2 °F33.8 °F81 %29.77 in6.2 miWSW (250°)18.4 mphPartly Cloudy
11:00 PM40.0 °F33.0 °F69 %29.82 in31.0 miWest (270°)22.4 mphScattered Clouds
11:20 PM39.2 °F33.8 °F81 %29.77 inWest (260°)21.9 mphClear
11:50 PM39.2 °F33.8 °F81 %29.77 inWSW (250°)20.7 mphClear
Hourly data recorded from EDDE, located miles away from Ehringsdorf, Germany







STORIES FROM OUR PARTNERS